GHST12 ESMT-ESMT

Flight info

Callsign GHST12
Flight time 0h 35m
Altitude 4000
Route DCT BAK DCT STAY01/0030 ESL2 STAY01/0030 DCT STAY02/0030 ESB1 STAY02/0030 DCT MF
Aircraft SB39/M-SDE2E3FGHIJ3J4J5M1RWXYZ/S

Departure

Time 2026-04-18 11:41
Airport Halmstad Airport (ESMT)

Arrival

Time 2026-04-18 12:16
Airport Halmstad Airport (ESMT)
Time Latitude Longitude Altitude Speed Heading
2026-04-18 11:25 56.68691 12.82641 74 ft 0 kts 256°
2026-04-18 11:37 56.68690 12.82639 74 ft 3 kts 256°
2026-04-18 11:37 56.68680 12.82552 70 ft 7 kts 226°
2026-04-18 11:37 56.68632 12.82563 72 ft 8 kts 163°
2026-04-18 11:38 56.68563 12.82600 70 ft 10 kts 163°
2026-04-18 11:38 56.68475 12.82647 74 ft 14 kts 163°
2026-04-18 11:38 56.68360 12.82659 73 ft 18 kts 194°
2026-04-18 11:38 56.68270 12.82561 73 ft 13 kts 232°
2026-04-18 11:39 56.68201 12.82402 73 ft 18 kts 232°
2026-04-18 11:39 56.68121 12.82220 68 ft 18 kts 232°
2026-04-18 11:39 56.68059 12.82041 71 ft 13 kts 253°
2026-04-18 11:39 56.68058 12.81935 71 ft 8 kts 279°
2026-04-18 11:40 56.68081 12.81846 71 ft 8 kts 314°
2026-04-18 11:40 56.68145 12.81832 71 ft 10 kts
2026-04-18 11:40 56.68632 12.81928 72 ft 177 kts
2026-04-18 11:40 56.70482 12.82209 510 ft 357 kts
2026-04-18 11:41 56.73536 12.82182 1066 ft 496 kts 353°
2026-04-18 11:41 56.76678 12.79980 1333 ft 475 kts 319°
2026-04-18 11:41 56.78510 12.75151 1105 ft 457 kts 288°
2026-04-18 11:41 56.79145 12.69821 967 ft 413 kts 277°
2026-04-18 11:42 56.79537 12.64605 898 ft 415 kts 276°
2026-04-18 11:42 56.79922 12.59372 922 ft 424 kts 276°
2026-04-18 11:42 56.80301 12.54019 983 ft 385 kts 276°
2026-04-18 11:42 56.80633 12.49378 1007 ft 359 kts 276°
2026-04-18 11:43 56.80951 12.44890 999 ft 357 kts 275°
2026-04-18 11:43 56.81267 12.40459 1006 ft 352 kts 276°
2026-04-18 11:43 56.81730 12.36141 981 ft 341 kts 287°
2026-04-18 11:43 56.82648 12.32065 1019 ft 357 kts 292°
2026-04-18 11:44 56.83709 12.27847 1034 ft 367 kts 294°
2026-04-18 11:44 56.84812 12.23681 988 ft 358 kts 294°
2026-04-18 11:44 56.85946 12.19584 984 ft 361 kts 295°
2026-04-18 11:44 56.87072 12.15572 977 ft 359 kts 295°
2026-04-18 11:45 56.88223 12.11547 999 ft 362 kts 295°
2026-04-18 11:45 56.89390 12.07452 1017 ft 356 kts 295°
2026-04-18 11:45 56.90525 12.03417 994 ft 360 kts 298°
2026-04-18 11:45 56.92188 12.00047 942 ft 363 kts 324°
2026-04-18 11:46 56.94487 11.98085 919 ft 364 kts 339°
2026-04-18 11:46 56.96899 11.96677 963 ft 370 kts 343°
2026-04-18 11:46 56.99331 11.95440 985 ft 364 kts 344°
2026-04-18 11:46 57.01784 11.94227 988 ft 368 kts 345°
2026-04-18 11:47 57.04261 11.93032 989 ft 372 kts 345°
2026-04-18 11:47 57.06663 11.91815 959 ft 358 kts 340°
2026-04-18 11:47 57.09040 11.90161 995 ft 366 kts 337°
2026-04-18 11:47 57.11365 11.88370 1002 ft 361 kts 336°
2026-04-18 11:48 57.13687 11.86522 997 ft 362 kts 335°
2026-04-18 11:48 57.16005 11.84679 995 ft 372 kts 336°
2026-04-18 11:48 57.18335 11.82732 974 ft 369 kts 335°
2026-04-18 11:48 57.20610 11.80863 986 ft 358 kts 335°
2026-04-18 11:49 57.22951 11.78918 992 ft 369 kts 335°
2026-04-18 11:49 57.25300 11.76988 999 ft 364 kts 335°
2026-04-18 11:49 57.27613 11.75081 992 ft 362 kts 336°
2026-04-18 11:49 57.29940 11.73169 984 ft 365 kts 335°
2026-04-18 11:50 57.32251 11.71257 977 ft 366 kts 335°
2026-04-18 11:50 57.34570 11.69311 953 ft 358 kts 336°
2026-04-18 11:50 57.36878 11.67381 1005 ft 366 kts 335°
2026-04-18 11:50 57.39193 11.65445 996 ft 364 kts 335°
2026-04-18 11:51 57.41437 11.63572 1029 ft 345 kts 335°
2026-04-18 11:51 57.43723 11.61685 997 ft 374 kts 335°
2026-04-18 11:51 57.46063 11.59670 989 ft 371 kts 335°
2026-04-18 11:51 57.48379 11.57709 1021 ft 365 kts 335°
2026-04-18 11:52 57.50667 11.55777 989 ft 368 kts 335°
2026-04-18 11:52 57.52983 11.53816 997 ft 361 kts 335°
2026-04-18 11:52 57.55306 11.51850 989 ft 367 kts 335°
2026-04-18 11:52 57.57618 11.49882 976 ft 369 kts 334°
2026-04-18 11:53 57.59920 11.47938 966 ft 365 kts 335°
2026-04-18 11:53 57.62234 11.45984 1000 ft 365 kts 335°
2026-04-18 11:53 57.64534 11.44062 1035 ft 362 kts 335°
2026-04-18 11:53 57.66865 11.42092 1020 ft 367 kts 333°
2026-04-18 11:54 57.69162 11.40116 981 ft 367 kts 335°
2026-04-18 11:54 57.71443 11.38180 946 ft 355 kts 335°
2026-04-18 11:54 57.73796 11.36619 920 ft 364 kts 350°
2026-04-18 11:54 57.76246 11.36878 888 ft 357 kts 17°
2026-04-18 11:55 57.78398 11.39095 861 ft 356 kts 44°
2026-04-18 11:55 57.79785 11.42851 865 ft 344 kts 71°
2026-04-18 11:55 57.80094 11.47313 888 ft 343 kts 98°
2026-04-18 11:55 57.79298 11.51453 928 ft 342 kts 124°
2026-04-18 11:56 57.77652 11.54738 995 ft 340 kts 140°
2026-04-18 11:56 57.75801 11.57616 990 ft 345 kts 142°
2026-04-18 11:56 57.73899 11.60329 1020 ft 336 kts 144°
2026-04-18 11:56 57.71984 11.63006 998 ft 341 kts 144°
2026-04-18 11:57 57.70073 11.65600 1056 ft 347 kts 145°
2026-04-18 11:57 57.68158 11.68222 1024 ft 349 kts 144°
2026-04-18 11:57 57.66272 11.70775 1008 ft 340 kts 145°
2026-04-18 11:57 57.64324 11.73411 999 ft 332 kts 145°
2026-04-18 11:58 57.62507 11.75845 1018 ft 331 kts 146°
2026-04-18 11:58 57.60530 11.78513 1003 ft 344 kts 144°
2026-04-18 11:58 57.58591 11.81103 981 ft 340 kts 149°
2026-04-18 11:58 57.56697 11.83590 971 ft 344 kts 145°
2026-04-18 11:59 57.54792 11.86315 1063 ft 325 kts 151°
2026-04-18 11:59 57.52863 11.88718 956 ft 359 kts 144°
2026-04-18 11:59 57.50938 11.91339 968 ft 329 kts 146°
2026-04-18 11:59 57.49033 11.93861 1031 ft 340 kts 141°
2026-04-18 12:00 57.47104 11.96300 932 ft 339 kts 157°
2026-04-18 12:00 57.44812 11.97107 928 ft 342 kts 178°
2026-04-18 12:00 57.42511 11.97075 988 ft 326 kts 182°
2026-04-18 12:00 57.40131 11.96771 1005 ft 342 kts 184°
2026-04-18 12:01 57.35452 11.95983 932 ft 340 kts 185°
2026-04-18 12:01 57.33149 11.95527 1059 ft 332 kts 186°
2026-04-18 12:01 57.30839 11.95108 982 ft 347 kts 185°
2026-04-18 12:02 57.28542 11.94657 915 ft 344 kts 185°
2026-04-18 12:02 57.26174 11.94896 960 ft 338 kts 164°
2026-04-18 12:02 57.23961 11.96334 977 ft 342 kts 159°
2026-04-18 12:02 57.21786 11.98070 969 ft 338 kts 156°
2026-04-18 12:03 57.19659 11.99849 1017 ft 341 kts 155°
2026-04-18 12:03 57.17511 12.01714 919 ft 336 kts 155°
2026-04-18 12:03 57.15423 12.03529 1251 ft 331 kts 157°
2026-04-18 12:03 57.13268 12.05399 1055 ft 341 kts 155°
2026-04-18 12:04 57.11127 12.07283 1006 ft 340 kts 155°
2026-04-18 12:04 57.08990 12.09151 1001 ft 332 kts 155°
2026-04-18 12:04 57.06867 12.11015 1002 ft 335 kts 155°
2026-04-18 12:04 57.05456 12.12263 1031 ft 339 kts 155°
2026-04-18 12:05 57.03375 12.14073 1084 ft 338 kts 155°
2026-04-18 12:05 57.01258 12.15948 1000 ft 336 kts 155°
2026-04-18 12:05 56.99219 12.18066 952 ft 331 kts 141°
2026-04-18 12:05 56.97629 12.21236 980 ft 342 kts 131°
2026-04-18 12:06 56.96104 12.24569 982 ft 337 kts 131°
2026-04-18 12:06 56.94604 12.27875 988 ft 344 kts 131°
2026-04-18 12:06 56.93103 12.31215 973 ft 335 kts 131°
2026-04-18 12:06 56.91586 12.34562 991 ft 333 kts 130°
2026-04-18 12:07 56.90068 12.37926 956 ft 326 kts 130°
2026-04-18 12:07 56.88578 12.41238 995 ft 338 kts 130°
2026-04-18 12:07 56.87065 12.44604 1002 ft 343 kts 130°
2026-04-18 12:07 56.85539 12.47971 987 ft 347 kts 131°
2026-04-18 12:08 56.83933 12.51081 990 ft 336 kts 142°
2026-04-18 12:08 56.82017 12.53515 978 ft 333 kts 152°
2026-04-18 12:08 56.79879 12.55343 984 ft 341 kts 157°
2026-04-18 12:08 56.77676 12.56984 1010 ft 336 kts 159°
2026-04-18 12:09 56.75461 12.58536 1001 ft 342 kts 160°
2026-04-18 12:09 56.73241 12.60061 1022 ft 340 kts 160°
2026-04-18 12:09 56.71030 12.61559 1022 ft 340 kts 162°
2026-04-18 12:09 56.68694 12.62099 979 ft 330 kts 179°
2026-04-18 12:10 56.66369 12.61968 1005 ft 339 kts 183°
2026-04-18 12:10 56.64016 12.61657 1011 ft 341 kts 184°
2026-04-18 12:10 56.61663 12.61258 1018 ft 339 kts 185°
2026-04-18 12:10 56.59318 12.60868 999 ft 334 kts 181°
2026-04-18 12:11 56.57035 12.61778 918 ft 345 kts 153°
2026-04-18 12:11 56.55292 12.64540 941 ft 345 kts 126°
2026-04-18 12:11 56.54387 12.68549 885 ft 348 kts 101°
2026-04-18 12:11 56.54404 12.72893 859 ft 349 kts 80°
2026-04-18 12:12 56.55346 12.76973 809 ft 356 kts 53°
2026-04-18 12:12 56.57360 12.79356 1065 ft 362 kts 12°
2026-04-18 12:12 56.59868 12.80069 1100 ft 380 kts
2026-04-18 12:12 56.62411 12.80580 1061 ft 368 kts
2026-04-18 12:13 56.64951 12.81144 903 ft 362 kts
2026-04-18 12:13 56.67488 12.81675 720 ft 365 kts
2026-04-18 12:13 56.69956 12.81893 527 ft 342 kts 316°
2026-04-18 12:13 56.70033 12.78660 709 ft 214 kts 224°
2026-04-18 12:14 56.69052 12.77311 641 ft 162 kts 204°
2026-04-18 12:14 56.67936 12.76611 820 ft 185 kts 190°
2026-04-18 12:14 56.66702 12.76476 930 ft 146 kts 158°
2026-04-18 12:14 56.66230 12.77960 760 ft 149 kts 98°
2026-04-18 12:15 56.66246 12.79774 664 ft 143 kts 85°
2026-04-18 12:15 56.66697 12.81299 423 ft 144 kts 32°
2026-04-18 12:15 56.67674 12.81738 202 ft 144 kts
2026-04-18 12:15 56.68663 12.81931 72 ft 135 kts
2026-04-18 12:16 56.69438 12.82089 73 ft 96 kts
2026-04-18 12:16 56.69878 12.82177 70 ft 43 kts
2026-04-18 12:16 56.70033 12.82238 63 ft 18 kts 41°
2026-04-18 12:16 56.70105 12.82241 67 ft 7 kts 289°
2026-04-18 12:17 56.70033 12.82186 62 ft 17 kts 186°
2026-04-18 12:17 56.69916 12.82162 63 ft 17 kts 186°
2026-04-18 12:17 56.69802 12.82143 66 ft 13 kts 184°
2026-04-18 12:17 56.69712 12.82127 73 ft 13 kts 183°
2026-04-18 12:18 56.69652 12.82245 70 ft 14 kts 127°
2026-04-18 12:18 56.69573 12.82347 72 ft 17 kts 165°
2026-04-18 12:18 56.69439 12.82330 72 ft 22 kts 186°
2026-04-18 12:18 56.69299 12.82303 67 ft 17 kts 185°
2026-04-18 12:19 56.69189 12.82282 72 ft 14 kts 187°
2026-04-18 12:19 56.69102 12.82315 67 ft 13 kts 164°
2026-04-18 12:19 56.68957 12.82391 72 ft 24 kts 163°
2026-04-18 12:19 56.68815 12.82466 72 ft 17 kts 165°
2026-04-18 12:20 56.68747 12.82501 73 ft 1 kts 164°
2026-04-18 12:20 56.68743 12.82571 69 ft 12 kts 74°
2026-04-18 12:20 56.68737 12.82673 71 ft 6 kts 171°
2026-04-18 12:20 56.68702 12.82604 74 ft 0 kts 252°